Flag for U.S.A. Weather past 2 weeks in St. Paul, Minnesota, U.S.A.

Now
16 °F

Clear.


Feels Like: 16 °F
Forecast: 11 / 23 °F
Wind: No wind

Location: St. Paul Downtown Holman Field

Current Time: Dec 17, 2014 at 8:40:05 PM

Latest Report: Dec 17, 2014 at 7:53 PM


Visibility: 10 mi

Pressure: 30.37 "Hg

Humidity: 74%

Dew point: 9 °F

Location of St. PaulLocation

Historic Weather in St. Paul — Graph

°F

St. Paul temperature yesterday

Maximum temperature yesterday: 29 °F (at 12:53 AM)
Minimum temperature yesterday: 19 °F (at 11:53 PM)
Average temperature yesterday: 22 °F

Past Weeks' High & Low Weather Summary

 TemperatureHumidityPressure
High48 °F (Dec 14, 2:53 PM)100% (Dec 8, 12:53 AM)30.71 "Hg (Dec 8, 12:53 AM)
Low11 °F (Dec 3, 10:53 PM)43% (Dec 4, 1:53 PM)29.69 "Hg (Dec 15, 1:53 PM)
Average29 °F84%30.21 "Hg
* Reported Dec 2 6:53 PM — Dec 17 6:53 PM, St. Paul, Weather by CustomWeather, © 2014

Note: Actual official high and low records may vary slightly from our data, if they occured in-between our weather recording intervals... More about our weather records

Advertising

St. Paul weather history for previous 24 hours

 ConditionsComfort  
Time TempWeatherWind HumidityBarometerVisibility
6:53 PM
Dec 17
17 °FClear.No wind70%30.37 "Hg10 mi
5:53 PM17 °FPassing clouds.3 mph70%30.37 "Hg10 mi
4:53 PM18 °FOvercast.6 mph71%30.37 "Hg10 mi
3:53 PM18 °FOvercast.7 mph71%30.36 "Hg10 mi
2:53 PM19 °FScattered clouds.7 mph71%30.34 "Hg10 mi
2:02 PM19 °FScattered clouds.6 mph71%30.31 "Hg10 mi
1:53 PM19 °FPartly sunny.9 mph68%30.35 "Hg10 mi
12:53 PM17 °FScattered clouds.6 mph74%30.36 "Hg10 mi
11:53 AM16 °FPartly sunny.9 mph74%30.37 "Hg10 mi
10:53 AM16 °FOvercast.9 mph74%30.37 "Hg10 mi
9:53 AM14 °FPartly sunny.9 mph80%30.38 "Hg10 mi
8:53 AM12 °FSunny.8 mph80%30.37 "Hg10 mi
7:53 AM12 °FIce fog.8 mph84%30.36 "Hg6 mi
6:53 AM11 °FPassing clouds.7 mph84%30.36 "Hg10 mi
5:53 AM12 °FOvercast.10 mph80%30.35 "Hg10 mi
4:53 AM12 °FClear.9 mph80%30.34 "Hg10 mi
3:53 AM12 °FPassing clouds.9 mph80%30.33 "Hg10 mi
2:53 AM13 °FPassing clouds.10 mph81%30.33 "Hg10 mi
1:53 AM15 °FPassing clouds.12 mph80%30.31 "Hg10 mi
12:53 AM17 °FOvercast.9 mph80%30.31 "Hg10 mi
11:53 PM
Dec 16
19 °FOvercast.10 mph77%30.31 "Hg9 mi
10:53 PM20 °FOvercast.15 mph74%30.31 "Hg10 mi
9:53 PM20 °FOvercast.N/A78%30.30 "Hg10 mi
8:53 PM20 °FMostly cloudy.12 mph74%30.29 "Hg10 mi
Weather by CustomWeather, © 2014

See weather overviewHow to use our weather pages